Starlink 6379

operational
NORAD ID: 57343 Int'l Des: 2023-099 Owner: SPXS Country: US Constellation: starlink
LEOCIRCULAR

Über Starlink 6379

Beschreibung wird geladen...

Live-Position

3D-Globus wird geladen...

Nächste Überflüge

Höhenverlauf

Altitude vs Time

uPlot chart will show altitude changes over time

Zweizeiliger Elementsatz

1 57343U 23099R 25306.49281462 -.00000627 00000-0 -31357-4 0 9997
2 57343 43.0036 220.0557 0001410 265.2592 94.8090 15.02527572126980
Epoch: 2. Nov. 2025 • Age: 13 hours

Aktueller Status

Höhe 563.3 km
Geschwindigkeit 7.59 km/s
Subsatellitenpunkt 43.16°N, 110.91°W
Startdatum 16. Juli 2023
Alter 2.2 years
Typ internet

Technische Details

Klassifizierung Payload
Masse 305.00 kg
Trockenmasse 290.00 kg
Gesamtmasse 305.00 kg
Länge 0.20 m
Durchmesser 2.80 m
Spannweite 9.00 m
Form Box + pan
Hersteller SPXS
Bus-Typ Starlink
Phasenstatus In Orbit
Besitzer/Staat SPXS/US

Große Konstellationen

Loading constellations...